Location: Wallasey
(53.4265°N, 3.0662°W)
Time: 06:58:13
(UTC+00:00)

XW-2B - Pass Details

Date: 19 October 2019
Orbit: 507 x 528 km, 97.5° (Epoch: 17 November)

Event Time Altitude Azimuth Distance (km) Brightness Sun altitude
Rises 19:43:31 0° 221° (SW) 2,640 ? -15.0°
Reaches altitude 10° 19:47:22 10° 262° (W) 1,754 ? -15.5°
Maximum altitude 19:48:11 11° 274° (W) 1,719 ? -15.7°
Drops below altitude 10° 19:49:00 10° 287° (WNW) 1,755 ? -15.8°
Sets 19:52:53 0° 328° (NNW) 2,644 ? -16.4°
